Overview Statistics Trail Chart Weather Telemetry Raw packets
 

This is the latest recevied weather packets stored in our database for station/object W8LMG. If no packets are shown the sender has not sent any weather packets the latest 10 day(s).

<< 9 10 11 12 13 14 15 >>
Time Temp. Humidity Pressure Rain* Wind** Luminosity Snow
1788547559 31.67° C 56% 1018.1 hPa 0 mm - 523 W/m² -
1788547254 31.11° C 57% 1018 hPa 0 mm - 524 W/m² -
1788546949 31.11° C 55% 1018 hPa 0 mm - 535 W/m² -
1788546645 31.11° C 59% 1018.1 hPa 0 mm - 107 W/m² -
1788546341 31.11° C 58% 1018.3 hPa 0 mm - 579 W/m² -
1788546040 31.67° C 53% 1018.3 hPa 0 mm - 542 W/m² -
1788545737 31.11° C 56% 1018.3 hPa 0 mm - 542 W/m² -
1788545437 31.67° C 55% 1018.5 hPa 0 mm - 523 W/m² -
1788545137 32.22° C 55% 1018.6 hPa 0 mm - 570 W/m² -
1788544832 31.11° C 56% 1018.6 hPa 0 mm - 565 W/m² -
1788544526 31.67° C 59% 1018.5 hPa 0 mm - 564 W/m² -
1788544225 31.11° C 59% 1018.9 hPa 0 mm - 289 W/m² -
1788543920 30.56° C 61% 1018.9 hPa 0 mm - 125 W/m² -
1788543617 30° C 65% 1018.9 hPa 0 mm - 87 W/m² -
1788543317 30.56° C 61% 1019.1 hPa 0 mm - 93 W/m² -
1788543012 30.56° C 64% 1019 hPa 0 mm - 104 W/m² -
1788542708 30.56° C 60% 1019.1 hPa 0 mm - 89 W/m² -
1788542407 30.56° C 60% 1019 hPa 0 mm - 84 W/m² -
1788542103 30.56° C 58% 1019 hPa 0 mm - 99 W/m² -
1788541798 30.56° C 59% 1019.2 hPa 0 mm - 76 W/m² -
1788541493 30° C 60% 1019 hPa 0 mm - 66 W/m² -
1788541189 30° C 70% 1019.1 hPa 0 mm - 57 W/m² -
1788540888 30.56° C 65% 1019.1 hPa 0 mm - 52 W/m² -
1788540587 30.56° C 64% 1019.2 hPa 0 mm - 70 W/m² -
1788540282 30.56° C 64% 1019.2 hPa 0 mm - 71 W/m² -

* Rain latest hour (hover to see other rain measurements)
** Current wind speed in m/s (hover to see current wind gust speed)